This is the latest recevied weather packets stored in our database for station/object PY5KT-13. If no packets are shown the sender has not sent any weather packets the latest 10 day(s).
| Time | Temp. | Humidity | Pressure | Rain* | Wind** | Luminosity | Snow |
|---|---|---|---|---|---|---|---|
| 1777468086 | 15.56° C | 97% | 1020.9 hPa | 0.76 mm | - | 45 W/m² | - |
| 1777467783 | 15.56° C | 97% | 1020.9 hPa | 0.51 mm | - | 41 W/m² | - |
| 1777467482 | 15.56° C | 97% | 1020.9 hPa | 0.76 mm | - | 41 W/m² | - |
| 1777467179 | 15° C | 98% | 1020.9 hPa | 0.76 mm | - | 45 W/m² | - |
| 1777466877 | 15° C | 98% | 1020.8 hPa | 0.76 mm | - | 40 W/m² | - |
| 1777466574 | 15° C | 98% | 1020.8 hPa | 0.76 mm | - | 35 W/m² | - |
| 1777466272 | 15° C | 98% | 1020.7 hPa | 1.02 mm | - | 34 W/m² | - |
| 1777465971 | 15° C | 99% | 1020.6 hPa | 1.02 mm | - | 36 W/m² | - |
| 1777465668 | 15° C | 99% | 1020.6 hPa | 1.27 mm | - | 42 W/m² | - |
| 1777465366 | 15° C | 99% | 1020.6 hPa | 1.27 mm | - | 39 W/m² | - |
| 1777465063 | 15° C | 99% | 1020.7 hPa | 1.27 mm | - | 25 W/m² | - |
| 1777464761 | 15° C | 99% | 1020.7 hPa | 1.27 mm | - | 28 W/m² | - |
| 1777464459 | 15° C | 99% | 1020.8 hPa | 1.27 mm | - | 32 W/m² | - |
| 1777464157 | 15° C | 99% | 1020.8 hPa | 1.27 mm | - | 28 W/m² | - |
| 1777463854 | 15° C | 99% | 1020.9 hPa | 1.02 mm | - | 19 W/m² | - |
| 1777463552 | 15° C | 99% | 1020.7 hPa | 1.02 mm | - | 18 W/m² | - |
| 1777463250 | 15° C | 99% | 1020.7 hPa | 1.02 mm | - | 14 W/m² | - |
| 1777462948 | 15° C | 99% | 1020.7 hPa | 1.02 mm | - | 10 W/m² | - |
| 1777462646 | 14.44° C | 99% | 1020.6 hPa | 0.76 mm | - | 7 W/m² | - |
| 1777462344 | 14.44° C | 99% | 1020.6 hPa | 0.76 mm | - | 5 W/m² | - |
| 1777462042 | 14.44° C | 99% | 1020.6 hPa | 0.25 mm | - | 3 W/m² | - |
| 1777461741 | 14.44° C | 99% | 1020.4 hPa | 0.25 mm | - | 3 W/m² | - |
| 1777461439 | 14.44° C | 99% | 1020.3 hPa | 0.25 mm | - | 3 W/m² | - |
| 1777461137 | 14.44° C | 99% | 1020.1 hPa | 0 mm | - | 4 W/m² | - |
| 1777460835 | 14.44° C | 99% | 1019.9 hPa | 0 mm | - | 7 W/m² | - |
* Rain latest hour (hover to see other rain measurements)
** Current wind speed in m/s (hover to see current wind gust speed)